Showing default

SHIYAN 27F, 63604

Orbit data source: Space-Track

SHIYAN 27F, 63604 is a payload satellite owned by CAST (CN) in SSO that was launched on Fri, 18 Apr 2025 UTC via a CHANG ZHENG 6A launch vehicle from the Taiyaun Space Center, China (TSC). Payload-class satellites include a variety of spacecraft equipped with specific instruments for various scientific and technological missions. These include communications satellites like Starlink; space stations such as the ISS; scientific satellites like the Hubble; Earth observation satellites from companies like Planet Labs, Umbra, and HawkEye 360; GPS; miniature CubeSats for education and research; and military/defense satellites.

Loading next visibility...
Identifier
63604, 2025-078F
Orbit
SSO
Country
Flag of CNCN / PRC
Related business
Manufacturer
CAST
Mission
Operational Defense Radar Imaging
Bus & Motor
SW27, Unknown motor
Mass
300 kg wet, ~300 kg dry
Launch date (UTC)
2025-04-18 (6 months ago)
Launch vehicle
CHANG ZHENG 6A
Launch site
Taiyaun Space Center, China (TSC)
Object type
Payload
Rocket body
Debris
Shape & HBR
Box + 1 Pan, 14.5 m
Radar Cross Section
13.200 m², Large (>1 m²)

Expand to show TLE details & history
Last TLE update: 12 hours ago

TLE from 12 hours ago
0 SHIYAN 27F
1 63604U 25078F   25286.60068664  .00000015  00000-0  83505-4 0  9991
2 63604  99.6945 292.5156 0000729  84.1703 275.9518 13.57218687 24083
Epoch: 2025-10-13T14:24Z
TLE epoch observation values (Epoch: 2025-10-13T14:24:59.325Z)
Latitude
-0.00008°
Longitude
53.86729°
Altitude
1,048.557 km
Speed
7.328 km/s
True Right ascension
19h 30m 03s
True Declination
0° 00' 00"
Sunlit
Object was in daylight at epoch
Visualization orbit readout
Latitude
Unknown
Longitude
Unknown
Altitude
Unknown
Speed
Unknown
Apparent Right ascension
Unknown
Apparent Declination
Unknown
Sunlit
N/A
Visualization observer readout
Local Sidereal Time
21:09:32
Azimuth
Unknown
Elevation
Unknown
Doppler factor
Unknown
Orbital elements
Apogee altitude
1,043.65 km
Perigee altitude
1,042.568 km
Semi-major axis
7,421.246 km
Eccentricity
0.00007
Inclination
99.6945°
RAAN
292.5156°
Arg. of periapsis
84.1703°
True anomaly
275.94349°
Mean anomaly
275.9518°
Eccentric anomaly
275.94765°
Mean motion
3.39491 °/min
Orbital period
106.04 mins
BSTAR
0.000083505
Loading maneuver chart data...
Computing Atmospheric mass density...
Loading historical data...
Loading historical data...
Loading historical data...
Loading historical data...
Loading historical data...
Loading historical data...
Loading historical data...

Documentation

Showing up to 5 results
|